Hourly Weather Biskira

Today, 26 September, Saturday

Time Temperature Precipitation Wind Pressure Humidity
00:00 +27°C° 0 mm 8 mps 751 mmHg 40%
01:00 +27°C° 0 mm 8 mps 751 mmHg 40%
02:00 +26°C° 0 mm 7 mps 751 mmHg 41%
03:00 +24°C° 0 mm 6 mps 751 mmHg 41%
04:00 +23°C° 0 mm 7 mps 751 mmHg 41%
05:00 +23°C° 0 mm 7 mps 751 mmHg 42%
06:00 +22°C° 0 mm 7 mps 751 mmHg 43%
07:00 +23°C° 0 mm 7 mps 752 mmHg 41%
08:00 +24°C° 0 mm 6 mps 752 mmHg 38%
09:00 +26°C° 0 mm 6 mps 752 mmHg 35%
10:00 +27°C° 0 mm 5 mps 752 mmHg 32%
11:00 +28°C° 0 mm 5 mps 752 mmHg 30%
12:00 +29°C° 0 mm 5 mps 752 mmHg 27%
13:00 +29°C° 0 mm 5 mps 751 mmHg 26%
14:00 +29°C° 0 mm 5 mps 750 mmHg 25%
15:00 +30°C° 0 mm 6 mps 750 mmHg 24%
16:00 +29°C° 0 mm 6 mps 750 mmHg 26%
17:00 +28°C° 0 mm 6 mps 750 mmHg 28%
18:00 +27°C° 0 mm 7 mps 750 mmHg 30%
19:00 +26°C° 0 mm 6 mps 750 mmHg 31%
20:00 +26°C° 0 mm 5 mps 750 mmHg 32%
21:00 +26°C° 0 mm 4 mps 750 mmHg 33%
22:00 +25°C° 0 mm 4 mps 750 mmHg 35%
23:00 +25°C° 0 mm 4 mps 750 mmHg 36%

Tomorrow, 27 September, Sunday

Time Temperature Precipitation Wind Pressure Humidity
00:00 +25°C° 0 mm 5 mps 749 mmHg 38%
01:00 +23°C° 0 mm 5 mps 749 mmHg 40%
02:00 +22°C° 0 mm 5 mps 749 mmHg 43%
03:00 +22°C° 0 mm 5 mps 748 mmHg 45%
04:00 +22°C° 0 mm 5 mps 748 mmHg 46%
05:00 +21°C° 0 mm 5 mps 748 mmHg 46%
06:00 +21°C° 0 mm 5 mps 748 mmHg 47%
07:00 +22°C° 0 mm 6 mps 749 mmHg 40%
08:00 +24°C° 0 mm 6 mps 749 mmHg 34%
09:00 +26°C° 0 mm 7 mps 749 mmHg 28%
10:00 +27°C° 0 mm 7 mps 749 mmHg 27%
11:00 +28°C° 0 mm 7 mps 749 mmHg 26%
12:00 +29°C° 0 mm 8 mps 749 mmHg 25%
13:00 +31°C° 0 mm 8 mps 749 mmHg 26%
14:00 +31°C° 0 mm 8 mps 748 mmHg 28%
15:00 +31°C° 0 mm 8 mps 748 mmHg 29%
16:00 +29°C° 0 mm 7 mps 748 mmHg 32%
17:00 +28°C° 0 mm 7 mps 748 mmHg 34%
18:00 +27°C° 0 mm 6 mps 749 mmHg 37%
19:00 +27°C° 0 mm 5 mps 749 mmHg 38%
20:00 +26°C° 0 mm 4 mps 749 mmHg 39%
21:00 +26°C° 0 mm 3 mps 750 mmHg 41%
22:00 +26°C° 0 mm 3 mps 750 mmHg 42%
23:00 +25°C° 0 mm 2 mps 750 mmHg 43%

Day after tomorrow, 28 September, Monday

Time Temperature Precipitation Wind Pressure Humidity
00:00 +25°C° 0 mm 2 mps 750 mmHg 43%
01:00 +24°C° 0 mm 2 mps 750 mmHg 44%
02:00 +24°C° 0 mm 2 mps 750 mmHg 45%
03:00 +24°C° 0 mm 2 mps 750 mmHg 46%
04:00 +24°C° 0 mm 2 mps 750 mmHg 47%
05:00 +23°C° 0 mm 2 mps 751 mmHg 48%
06:00 +23°C° 0 mm 2 mps 751 mmHg 48%
07:00 +24°C° 0 mm 2 mps 752 mmHg 43%
08:00 +26°C° 0 mm 3 mps 752 mmHg 38%
09:00 +27°C° 0 mm 3 mps 752 mmHg 32%
10:00 +28°C° 0 mm 3 mps 752 mmHg 29%
11:00 +29°C° 0 mm 4 mps 752 mmHg 25%
12:00 +30°C° 0 mm 4 mps 752 mmHg 22%
13:00 +30°C° 0 mm 4 mps 752 mmHg 21%
14:00 +30°C° 0 mm 4 mps 751 mmHg 20%
15:00 +32°C° 0 mm 4 mps 751 mmHg 19%
16:00 +30°C° 0 mm 4 mps 751 mmHg 20%
17:00 +29°C° 0 mm 4 mps 752 mmHg 20%
18:00 +29°C° 0 mm 3 mps 752 mmHg 21%
19:00 +28°C° 0 mm 3 mps 752 mmHg 22%
20:00 +27°C° 0 mm 2 mps 753 mmHg 24%
21:00 +27°C° 0 mm 2 mps 753 mmHg 25%
22:00 +26°C° 0 mm 1 mps 753 mmHg 25%
23:00 +26°C° 0 mm 1 mps 753 mmHg 26%

29 September, Tuesday

Time Temperature Precipitation Wind Pressure Humidity
00:00 +25°C° 0 mm 1 mps 754 mmHg 27%
01:00 +25°C° 0 mm 1 mps 753 mmHg 27%
02:00 +24°C° 0 mm 1 mps 753 mmHg 27%
03:00 +24°C° 0 mm 1 mps 753 mmHg 28%
04:00 +24°C° 0 mm 2 mps 753 mmHg 28%
05:00 +24°C° 0 mm 2 mps 754 mmHg 29%
06:00 +22°C° 0 mm 3 mps 754 mmHg 30%
07:00 +25°C° 0 mm 3 mps 754 mmHg 31%
08:00 +26°C° 0 mm 4 mps 754 mmHg 33%
09:00 +27°C° 0 mm 4 mps 755 mmHg 34%
10:00 +28°C° 0 mm 4 mps 754 mmHg 33%
11:00 +29°C° 0 mm 3 mps 754 mmHg 32%
12:00 +30°C° 0 mm 3 mps 754 mmHg 31%
13:00 +30°C° 0 mm 2 mps 754 mmHg 31%
14:00 +31°C° 0 mm 2 mps 753 mmHg 30%
15:00 +31°C° 0 mm 1 mps 752 mmHg 29%
16:00 +31°C° 0 mm 1 mps 753 mmHg 30%
17:00 +30°C° 0 mm 2 mps 753 mmHg 32%
18:00 +30°C° 0 mm 2 mps 753 mmHg 33%
19:00 +30°C° 0 mm 2 mps 753 mmHg 34%
20:00 +29°C° 0 mm 2 mps 753 mmHg 35%
21:00 +29°C° 0 mm 2 mps 753 mmHg 36%
22:00 +28°C° 0 mm 2 mps 753 mmHg 38%
23:00 +28°C° 0 mm 2 mps 753 mmHg 39%

30 September, Wednesday

Time Temperature Precipitation Wind Pressure Humidity
00:00 +27°C° 0 mm 1 mps 753 mmHg 40%
01:00 +27°C° 0 mm 1 mps 752 mmHg 41%
02:00 +27°C° 0 mm 1 mps 752 mmHg 41%
03:00 +26°C° 0 mm 1 mps 752 mmHg 42%
04:00 +26°C° 0 mm 1 mps 752 mmHg 42%
05:00 +26°C° 0 mm 1 mps 752 mmHg 42%
06:00 +26°C° 0 mm 1 mps 752 mmHg 43%
07:00 +27°C° 0 mm 2 mps 752 mmHg 39%
08:00 +29°C° 0 mm 2 mps 752 mmHg 35%
09:00 +30°C° 0 mm 2 mps 752 mmHg 31%
10:00 +31°C° 0 mm 2 mps 751 mmHg 29%
11:00 +32°C° 0 mm 2 mps 751 mmHg 26%
12:00 +34°C° 0 mm 2 mps 751 mmHg 24%
13:00 +35°C° 0 mm 2 mps 750 mmHg 22%
14:00 +36°C° 0 mm 2 mps 749 mmHg 21%
15:00 +36°C° 0 mm 1 mps 749 mmHg 20%
16:00 +36°C° 0 mm 2 mps 749 mmHg 21%
17:00 +35°C° 0 mm 3 mps 749 mmHg 22%
18:00 +35°C° 0 mm 3 mps 749 mmHg 24%
19:00 +34°C° 0 mm 3 mps 749 mmHg 25%
20:00 +34°C° 0 mm 3 mps 749 mmHg 25%
21:00 +33°C° 0 mm 3 mps 749 mmHg 26%
22:00 +33°C° 0 mm 3 mps 749 mmHg 27%
23:00 +31°C° 0 mm 3 mps 749 mmHg 28%

1 October, Thursday

Time Temperature Precipitation Wind Pressure Humidity
00:00 +32°C° 0 mm 4 mps 749 mmHg 29%
01:00 +30°C° 0 mm 3 mps 749 mmHg 30%
02:00 +30°C° 0 mm 3 mps 748 mmHg 31%
03:00 +29°C° 0 mm 2 mps 748 mmHg 32%
04:00 +29°C° 0 mm 2 mps 748 mmHg 32%
05:00 +29°C° 0 mm 2 mps 748 mmHg 33%
06:00 +29°C° 0 mm 1 mps 748 mmHg 33%
07:00 +30°C° 0 mm 2 mps 749 mmHg 31%
08:00 +31°C° 0 mm 2 mps 749 mmHg 29%
09:00 +34°C° 0 mm 2 mps 749 mmHg 28%
10:00 +34°C° 0 mm 2 mps 749 mmHg 27%
11:00 +35°C° 0 mm 3 mps 749 mmHg 26%
12:00 +35°C° 0 mm 3 mps 748 mmHg 25%
13:00 +36°C° 0 mm 2 mps 748 mmHg 25%
14:00 +36°C° 0 mm 2 mps 748 mmHg 25%
15:00 +35°C° 0 mm 1 mps 748 mmHg 25%
16:00 +34°C° 0 mm 1 mps 748 mmHg 27%
17:00 +34°C° 0 mm 1 mps 748 mmHg 28%
18:00 +33°C° 0 mm 1 mps 748 mmHg 30%
19:00 +32°C° 0 mm 1 mps 748 mmHg 31%
20:00 +32°C° 0 mm 1 mps 749 mmHg 32%
21:00 +32°C° 0 mm 1 mps 749 mmHg 33%
22:00 +31°C° 0 mm 1 mps 749 mmHg 35%
23:00 +30°C° 0 mm 2 mps 749 mmHg 37%
Show more